TimeCST,TemperatureF,Dew PointF,Humidity,Sea Level PressureIn,VisibilityMPH,Wind Direction,Wind SpeedMPH,Gust SpeedMPH,PrecipitationIn,Events,Conditions,WindDirDegrees,DateUTC
12:55 AM,-11.0,-19.1,67,30.48,10.0,NW,12.7,-,N/A,,Clear,320,2013-02-19 06:55:00
1:55 AM,-11.0,-19.3,67,30.49,10.0,NNW,12.7,-,N/A,,Clear,340,2013-02-19 07:55:00
2:55 AM,-13.4,-21.6,67,30.50,10.0,NNW,9.2,-,N/A,,Clear,330,2013-02-19 08:55:00
3:55 AM,-17.3,-25.4,67,30.51,10.0,NW,9.2,-,N/A,,Clear,320,2013-02-19 09:55:00
4:55 AM,-16.2,-23.8,69,30.51,10.0,NNW,11.5,-,N/A,,Clear,330,2013-02-19 10:55:00
5:55 AM,-15.9,-23.8,67,30.52,10.0,NNW,9.2,-,N/A,,Clear,340,2013-02-19 11:55:00
6:55 AM,-23.1,-29.9,70,30.55,10.0,NW,6.9,-,N/A,,Clear,320,2013-02-19 12:55:00
7:55 AM,-20.9,-27.0,73,30.56,10.0,NW,10.4,-,N/A,,Clear,310,2013-02-19 13:55:00
8:55 AM,-22.4,-28.8,72,30.59,10.0,NW,8.1,-,N/A,,Clear,310,2013-02-19 14:55:00
9:55 AM,-16.2,-23.3,71,30.59,10.0,NNW,8.1,-,N/A,,Clear,340,2013-02-19 15:55:00
10:55 AM,-14.6,-22.2,69,30.59,10.0,North,6.9,-,N/A,,Clear,10,2013-02-19 16:55:00
11:55 AM,-12.6,-20.9,67,30.60,10.0,North,4.6,-,N/A,,Clear,350,2013-02-19 17:55:00
12:55 PM,-10.1,-18.6,66,30.59,10.0,NW,3.5,-,N/A,,Clear,310,2013-02-19 18:55:00
1:55 PM,-8.1,-17.5,64,30.58,10.0,Calm,Calm,-,N/A,,Clear,0,2013-02-19 19:55:00
2:55 PM,-6.5,-17.5,59,30.56,10.0,ESE,3.5,-,0.00,Snow,Light Snow,110,2013-02-19 20:55:00
3:55 PM,-5.8,-18.2,55,30.56,10.0,Calm,Calm,-,0.00,,Clear,0,2013-02-19 21:55:00
4:55 PM,-6.7,-17.5,59,30.55,10.0,ESE,8.1,-,N/A,,Clear,120,2013-02-19 22:55:00
5:55 PM,-8.1,-18.2,61,30.54,10.0,ENE,4.6,-,N/A,,Clear,70,2013-02-19 23:55:00
6:55 PM,-9.4,-18.4,65,30.54,10.0,East,6.9,-,N/A,,Clear,90,2013-02-20 00:55:00
7:55 PM,-9.9,-18.9,65,30.55,10.0,East,5.8,-,N/A,,Clear,100,2013-02-20 01:55:00
8:55 PM,-10.1,-18.6,66,30.55,10.0,ESE,8.1,-,N/A,,Clear,110,2013-02-20 02:55:00
9:55 PM,-11.9,-19.8,68,30.56,10.0,SE,9.2,-,N/A,,Clear,140,2013-02-20 03:55:00
10:55 PM,-11.6,-20.6,64,30.53,10.0,SE,12.7,-,N/A,,Clear,130,2013-02-20 04:55:00
11:55 PM,-11.6,-20.2,66,30.52,10.0,SE,15.0,-,N/A,,Clear,140,2013-02-20 05:55:00